[[{"header":{"parameterUnit":"m.s-1","parameterCategory":1,"la1":30.2992,"la2":30.254,"lo1":-89.0895,"lo2":-89.0443,"dy":0.0025,"dx":0.0025,"nx":19,"ny":19,"refTime":"2026-04-30T21:00:00:Z","depth":0,"parameterNumber":2,"parameterNumberName":"U-component_of_WINDS"},"data":[0,0,0,-3.4683,-3.4689,-3.4942,-3.4943,-3.5284,-3.5287,0,0,0,0,0,0,0,0,0,0,0,-3.4612,-3.4614,-3.4683,-3.4689,-3.4942,-3.4943,-3.5284,-3.5287,0,0,0,0,0,0,0,0,0,0,0,-3.4611,-3.4614,-3.4617,-3.469,-3.4942,-3.4943,-3.5283,-3.5087,0,0,0,0,0,0,0,0,0,0,-3.4839,-3.4775,-3.4613,-3.4617,-3.4692,-3.4942,-3.4943,-3.5078,-3.51,-3.5175,0,-3.5236,0,-3.5267,-3.5311,-3.5312,0,0,0,-3.4688,-3.4757,-3.4821,-3.4617,-3.4694,-3.4941,-3.4828,-3.509,-3.5115,-3.5204,-3.5241,-3.5254,-3.5273,-3.5313,-3.5315,-3.5739,-3.5741,0,0,-3.4674,-3.4661,-3.4804,-3.4837,-3.4792,-3.482,-3.4836,-3.5105,-3.5147,-3.5242,-3.5261,-3.5278,-3.5315,-3.5318,-3.5737,-3.5739,0,0,0,-3.4635,-3.4651,-3.4709,-3.4823,-3.4867,-3.4827,-3.4845,-3.5135,-3.5155,-3.5265,-3.5282,-3.5317,-3.5321,-3.5735,-3.5738,-3.5825,0,0,0,-3.4626,-3.4628,-3.4703,-3.4697,-3.4862,-3.5003,-3.487,-3.5136,-3.5167,-3.528,-3.5317,-3.5325,-3.5732,-3.5736,-3.5818,-3.5871,0,0,0,-3.4595,-3.4624,-3.4661,-3.4696,-3.4803,-3.4999,-3.5034,-3.5143,-3.5178,-3.5312,-3.5326,-3.5731,-3.5735,-3.5811,-3.586,-3.5981,0,0,0,-3.4558,-3.4736,-3.4663,-3.4869,-3.4801,-3.5048,-3.5032,-3.5218,-3.5344,-3.5319,-3.5733,-3.5737,-3.5809,-3.5853,-3.5974,-3.6082,-3.6125,0,0,-3.4776,-3.4762,-3.4885,-3.4826,-3.5082,-3.5011,-3.5283,-3.5413,-3.544,-3.5639,-3.565,-3.582,-3.5859,-3.598,-3.6362,-3.6396,0,0,0,-3.495,-3.5039,-3.511,-3.5226,-3.5326,-3.542,-3.5508,-3.5557,-3.5726,-3.5537,-3.5895,-3.5919,-3.599,-3.6043,-3.6072,-3.6136,-3.576,-3.5759,-3.5759,-3.5243,-3.5265,-3.5472,-3.5525,-3.5639,-3.5729,-3.5826,-3.5908,-3.5899,-3.5984,-3.6044,-3.6273,-3.6334,-3.6355,-3.6422,-3.61,-3.61,-3.6101,-3.6101,-3.5568,-3.57,-3.5681,-3.5875,-3.59,-3.6066,-3.6162,-3.615,-3.6313,-3.6228,-3.6293,-3.6201,-3.6391,-3.6452,-3.6108,-3.6107,-3.6106,-3.6105,-3.6105,-3.5766,-3.5833,-3.5886,-3.6058,-3.619,-3.624,-3.6397,-3.6414,-3.6432,-3.6495,-3.6564,-3.6563,-3.6568,-3.6526,-3.6526,-3.6527,-3.6528,-3.6528,-3.6529,-3.5951,-3.6008,-3.6135,-3.6257,-3.6336,-3.6442,-3.6536,-3.6617,-3.6711,-3.6712,-3.6713,-3.67,-3.6403,-3.6331,-3.6542,-3.6539,-3.6538,-3.6537,-3.6536,-3.628,-3.6209,-3.6404,-3.6483,-3.663,-3.6763,-3.6782,-3.6945,-3.7014,-3.7092,-3.7065,-3.6841,-3.683,-3.6808,-3.6748,-3.7055,-3.7055,-3.7055,-3.7055,-3.645,-3.6444,-3.665,-3.6775,-3.69,-3.6937,-3.7166,-3.7243,-3.7312,-3.7358,-3.7315,-3.7236,-3.7212,-3.7216,-3.7185,-3.713,-3.7527,-3.7528,-3.7528,-3.6657,-3.6664,-3.6852,-3.6912,-3.7029,-3.7132,-3.7349,-3.75,-3.7563,-3.7548,-3.7396,-3.7376,-3.7249,-3.7205,-3.7189,-3.714,-3.704,0,0]},{"header":{"parameterUnit":"m.s-1","parameterCategory":1,"la1":30.2992,"la2":30.254,"lo1":-89.0895,"lo2":-89.0443,"dy":0.0025,"dx":0.0025,"nx":19,"ny":19,"refTime":"2026-04-30T21:00:00:Z","depth":0,"parameterNumber":3,"parameterNumberName":"V-component_of_WINDS"},"data":[0,0,0,-4.2542,-4.254,-4.2429,-4.2429,-4.2283,-4.2282,0,0,0,0,0,0,0,0,0,0,0,-4.2582,-4.2581,-4.2543,-4.254,-4.2429,-4.2429,-4.2283,-4.2282,0,0,0,0,0,0,0,0,0,0,0,-4.2582,-4.2581,-4.258,-4.254,-4.2429,-4.2429,-4.2284,-4.2367,0,0,0,0,0,0,0,0,0,0,-4.2474,-4.2519,-4.2581,-4.258,-4.2539,-4.2429,-4.2429,-4.2371,-4.2362,-4.2335,0,-4.232,0,-4.2299,-4.2273,-4.2272,0,0,0,-4.2533,-4.2527,-4.2492,-4.258,-4.2538,-4.243,-4.2477,-4.2366,-4.2355,-4.2322,-4.2317,-4.2312,-4.2297,-4.2272,-4.2271,-4.2152,-4.2152,0,0,-4.254,-4.2563,-4.2499,-4.2485,-4.2511,-4.2481,-4.2474,-4.2359,-4.2352,-4.2317,-4.2308,-4.2294,-4.2271,-4.227,-4.2153,-4.2152,0,0,0,-4.2562,-4.2568,-4.2536,-4.2492,-4.2472,-4.2478,-4.247,-4.2357,-4.2345,-4.2307,-4.2292,-4.227,-4.2268,-4.2153,-4.2153,-4.2164,0,0,0,-4.2565,-4.2581,-4.2539,-4.2552,-4.2475,-4.2415,-4.2471,-4.2353,-4.234,-4.2293,-4.227,-4.2267,-4.2153,-4.2153,-4.2165,-4.2165,0,0,0,-4.2586,-4.2583,-4.257,-4.2554,-4.2508,-4.2417,-4.2398,-4.235,-4.2331,-4.2272,-4.2267,-4.2153,-4.2153,-4.2165,-4.2165,-4.2138,0,0,0,-4.2614,-4.2582,-4.2571,-4.2527,-4.2509,-4.2428,-4.2398,-4.2335,-4.2286,-4.2269,-4.2153,-4.2153,-4.2165,-4.2166,-4.2139,-4.2119,-4.2114,0,0,-4.2586,-4.2579,-4.2551,-4.2538,-4.2467,-4.2443,-4.2368,-4.2298,-4.2267,-4.219,-4.2187,-4.2165,-4.2165,-4.2138,-4.2082,-4.2078,0,0,0,-4.255,-4.253,-4.2506,-4.2463,-4.2412,-4.2365,-4.2304,-4.2277,-4.2211,-4.2236,-4.2148,-4.2148,-4.213,-4.2119,-4.2116,-4.2097,-4.215,-4.215,-4.215,-4.2543,-4.2509,-4.2458,-4.241,-4.2367,-4.2304,-4.2263,-4.2214,-4.219,-4.2169,-4.2146,-4.2116,-4.2105,-4.2102,-4.2083,-4.2134,-4.2134,-4.2134,-4.2134,-4.2496,-4.2461,-4.2429,-4.237,-4.2329,-4.2275,-4.2209,-4.2193,-4.2131,-4.2132,-4.2115,-4.2118,-4.21,-4.208,-4.2135,-4.2134,-4.2134,-4.2134,-4.2134,-4.2487,-4.2464,-4.2434,-4.2365,-4.2313,-4.2261,-4.2203,-4.2168,-4.2134,-4.2117,-4.2084,-4.2084,-4.2076,-4.2105,-4.2105,-4.2104,-4.2104,-4.2104,-4.2104,-4.2489,-4.2454,-4.2414,-4.2354,-4.2319,-4.2267,-4.2198,-4.2159,-4.2106,-4.2084,-4.2083,-4.2056,-4.2107,-4.2118,-4.2102,-4.2103,-4.2103,-4.2103,-4.2103,-4.2451,-4.2453,-4.2392,-4.2357,-4.2278,-4.2225,-4.2181,-4.2104,-4.2066,-4.2036,-4.2012,-4.2056,-4.2045,-4.2047,-4.2055,-4.2024,-4.2024,-4.2024,-4.2024,-4.2442,-4.2434,-4.236,-4.2304,-4.2246,-4.2197,-4.2117,-4.2059,-4.1998,-4.197,-4.1969,-4.1978,-4.1982,-4.1968,-4.1971,-4.1979,-4.1929,-4.1929,-4.1929,-4.2415,-4.2398,-4.2343,-4.229,-4.2224,-4.2165,-4.2086,-4.2015,-4.1946,-4.1924,-4.1945,-4.1949,-4.1964,-4.1972,-4.1951,-4.1958,-4.1971,0,0]}]]